星链-31862 (STARLINK-31862 )

导读 | 豆包AI

STARLINK-31862是美国太空探索技术公司SpaceX星链星座的一员,于2024年5月18日发射升空。星链项目旨在构建全球卫星互联网星座,为全球偏远地区、高纬度区域等提供低延迟宽带互联网服务,该卫星入轨后将和其他星链卫星协同,拓展星座覆盖能力,提升全球网络接入服务。

Basic Information
目录编号:
59786
目录名称:
STARLINK-31862
国际标识:
2024-093E
轨道中心:
EARTH
卫星名称:
星链-31862
卫星全名:
星链-31862 (STARLINK-31862 )
卫星状态:
在轨 (已飞行666 天)
发射日期:
2024-05-18 UTC
国别 :
美国 (US)
星等 :
--
Orbit Information
数据来源 国际轨道数据 AOE轨道数据
星历时间 2026-03-14T22:55:49+0800
1天前
查看轨道信息
2026-03-13T09:00:00+0800
2天前
查看轨道信息
半长轴 6861.173km 6861.186km
偏心率 0.0001644 0.0001842
轨道倾角 43.002° 43.004°
近地点辐角 288.423° 316.955°
升交点赤经 180.711° 189.643°
平近点角 71.644° 341.717°
近地点 481.908km 481.785km
远地点 484.164km 484.313km
周期 94.266分钟 94.267分钟
每日圈数 15.275847 15.275803
Detailed Information
固有亮度:
5
最大亮度:
1.5
卫星平台:
Starlink v2.0 mini
覆盖范围:
全球
运营商:
太空探索技术公司
运营商所在国:
美国
制造商(研发单位):
太空探索技术公司
制造商所在国:
美国
使用方式:
暂无
Satellite Introduction
星链(Starlink)计划是由太空探索技术公司(SpaceX)提出的一个巨型低轨卫星互联网星座项目,计划在2019年至2024年间在太空搭建由约1.2万颗卫星组成的“星链”网络,其中1584颗将部署在地球上空550千米处的近地轨道,并从2020年开始工作。该卫星仍在工作。
2D Orbit Map
3D Orbit Map
Orbit Altitude Analysis Chart
Orbit Inclination Analysis Chart
Orbit Comprehensive Analysis Chart
View Comprehensive Chart